Regional Weather Roundup
Issued by NWS

Home | Current Version | Previous Version | Text Only | Print | Product List | Glossary On
Versions: 1 2 3 4 5 6 7 8 9 10 11 12 13 14 15 16 17 18 19 20 21 22 23 24 25 26 27 28 29 30 31 32 33 34 35 36 37 38 39 40 41 42 43 44 45 46 47 48 49 50
000
ASUS43 KBIS 222310
RWRND

NORTH DAKOTA REGIONAL WEATHER ROUNDUP
NATIONAL WEATHER SERVICE BISMARCK ND
500 PM CST WED FEB 22 2017

NOTE: "FAIR" INDICATES FEW OR NO CLOUDS BELOW 12,000 FEET WITH NO
SIGNIFICANT WEATHER AND/OR OBSTRUCTIONS TO VISIBILITY.


NDZ001>003-009>011-017-230000-
NORTHWEST NORTH DAKOTA

CITY           SKY/WX    TMP DP  RH WIND       PRES   REMARKS
WILLISTON      CLOUDY    34  23  64 N6        29.95R
MINOT          FAIR      34  24  67 NW12      29.92R
MINOT AFB      SUNNY     33  25  72 NW12      29.92R
$$

NDZ018>021-031>035-040>046-230000-
SOUTHWEST NORTH DAKOTA

CITY           SKY/WX    TMP DP  RH WIND       PRES   REMARKS
BISMARCK       CLOUDY    34  31  88 NE9       29.90R
DICKINSON      CLOUDY    29  25  85 N8        29.88R
GARRISON         N/A     32  26  78 N6        29.91R
HETTINGER ARPT LGT SNOW  31  27  85 N16       29.89R FOG     WCI  20
$$

NDZ004>008-012>016-024-026-027-054-230000-
NORTHEAST NORTH DAKOTA

CITY           SKY/WX    TMP DP  RH WIND       PRES   REMARKS
GRAND FORKS    MOCLDY    35  24  64 N15       29.84R
GRND FRKS AFB  PTCLDY    33  27  77 N14       29.85R
DEVILS LAKE    FAIR      32  26  78 N10       29.88R
$$

NDZ022-023-025-028>030-036>039-047>053-230000-
SOUTHEAST NORTH DAKOTA

CITY           SKY/WX    TMP DP  RH WIND       PRES   REMARKS
FARGO          CLOUDY    35  31  85 N18       29.80R
JAMESTOWN      CLOUDY    32  27  81 N17       29.84R
$$




USA.gov is the U.S. government's official web portal to all federal, state and local government web resources and services.